Tracking 27086 objects as of 22-Mar-2023
HD Live streaming from Space Station
objects crossing your sky now

GLOBALSTAR M051

Track GLOBALSTAR M051 now!
10-day predictions
GLOBALSTAR M051 is classified as:


NORAD ID: 25853
Int'l Code: 1999-037C
Perigee: 1,956.1 km
Apogee: 1,959.2 km
Inclination: 52.0 °
Period: 126.1 minutes
Semi major axis: 8328 km
RCS: 2.464 m2 (large)
Launch date: July 10, 1999
Source: Globalstar (GLOB)
Launch site: AIR FORCE EASTERN TEST RANGE (AFETR)
Your satellite tracking list
Your tracking list is empty




NASA's NSSDC Master Catalog

Two Line Element Set (TLE):
1 25853U 99037C   23080.54306833 -.00000071  00000-0  18329-4 0  9992
2 25853  51.9778 215.7383 0001861 157.6902 202.3990 11.42187617 38865
Source of the keplerian elements: AFSPC